Theta_e
284 280 278 279 281 281 280 279 278 279 282 280 280 279 282 286 284 283 283 282 282 281 282 282 282 282 282 282 281 281 281 282 283 282 281 282 282 284 285 286 287 289 290 291
281 277 281 283 282 281 280 278 277 280 281 280 278 278 282 284 283 282 281 282 281 281 279 279 280 281 280 280 280 280 281 281 281 281 281 282 283 283 284 285 287 288 290 291
278 281 284 283 281 280 279 278 278 278 279 278 276 276 277 281 282 282 282 281 281 280 278 278 279 279 278 278 278 279 280 280 280 280 282 282 283 283 283 283 284 286 288 289
279 282 282 281 280 280 276 280 280 279 274 272 276 271 277 279 279 281 282 281 280 278 278 278 278 278 278 278 279 278 279 279 280 280 280 279 279 278 281 282 283 285 287 287
279 280 280 278 280 281 277 280 278 278 272 269 274 269 275 277 278 280 280 281 280 278 277 277 276 278 277 278 277 277 277 278 280 280 279 279 278 279 281 281 282 284 285 286
280 282 281 280 281 281 281 278 279 274 272 264 270 271 274 275 274 278 279 279 279 278 277 278 277 277 276 277 276 277 277 277 278 278 278 278 277 278 278 279 280 282 283 286
280 279 281 283 279 281 279 278 273 267 263 268 272 270 276 276 276 276 277 277 275 275 276 276 275 275 276 276 276 276 276 276 277 277 277 277 277 277 277 278 279 280 281 283
274 271 278 282 277 274 278 277 274 269 265 266 274 267 279 277 276 272 271 271 274 276 276 275 275 275 274 275 275 275 275 275 276 275 275 276 276 277 277 278 279 279 279 281
268 272 279 281 281 280 277 275 277 271 268 268 273 276 277 279 275 273 273 277 276 275 274 273 274 273 273 273 274 273 273 274 274 274 274 275 276 276 276 277 277 278 279 280
275 269 279 279 281 280 279 280 273 273 268 267 273 270 274 272 273 274 272 275 275 274 274 273 272 272 272 272 272 272 272 270 269 272 274 275 275 275 275 275 275 276 279 280
278 273 274 278 275 275 275 276 275 275 271 270 266 272 272 271 268 272 273 275 272 272 272 271 271 271 268 269 267 268 268 266 270 271 273 274 275 275 274 273 274 276 279 280
279 275 267 271 276 280 279 277 277 273 270 265 265 270 269 267 263 264 272 275 273 272 270 269 269 266 265 265 266 265 265 265 269 270 272 273 274 274 273 274 275 276 277 280
278 276 266 269 275 277 275 276 274 272 269 266 266 270 265 261 267 271 271 273 271 272 270 267 264 262 263 264 264 264 265 266 268 269 271 272 272 273 273 274 278 279 279 279
284 275 269 269 275 275 273 274 274 274 266 263 264 268 276 274 275 277 276 271 267 267 265 263 262 262 262 262 263 264 265 266 268 268 270 270 271 272 273 274 276 278 279 279
279 268 267 271 275 278 276 277 274 271 269 273 266 262 274 276 276 274 265 266 270 269 267 265 261 263 262 261 263 263 264 266 267 267 268 269 270 271 271 273 275 276 277 279
279 268 269 268 271 272 272 276 276 275 273 272 263 272 275 269 261 265 271 271 269 269 267 264 261 262 263 262 263 265 266 266 264 265 267 268 270 271 273 275 275 276 277 278
275 270 266 264 268 272 270 269 267 265 261 266 266 271 263 273 275 269 271 266 269 269 267 265 265 265 265 265 271 267 267 267 268 268 271 273 273 273 274 275 275 276 276 277
272 270 268 264 266 267 270 261 264 265 265 266 267 271 273 273 273 268 267 264 269 267 265 266 265 269 268 270 270 272 273 273 272 271 272 273 274 274 274 274 273 274 276 276
277 273 265 262 259 272 273 268 268 270 270 266 268 271 270 268 262 270 262 259 264 265 266 265 266 266 268 268 269 271 270 271 272 270 271 272 273 273 273 273 273 274 275 275
278 275 269 262 262 262 272 272 271 267 267 270 265 269 266 273 272 272 268 263 270 267 266 266 266 266 267 268 270 272 272 272 271 272 272 272 272 272 271 272 272 274 274 275
265 266 264 262 264 268 274 274 273 266 271 271 265 269 268 271 274 278 277 275 267 268 267 266 266 267 269 268 269 270 270 270 272 272 272 272 272 271 272 271 271 271 271 271
265 263 262 262 261 265 277 275 276 277 273 272 270 269 271 272 274 273 275 275 274 272 269 269 268 269 270 270 271 271 271 273 271 271 270 270 269 271 271 267 269 268 269 269
270 272 274 269 269 275 274 280 278 274 277 276 277 277 276 277 277 277 277 277 277 275 274 272 271 271 271 270 271 271 272 270 268 267 267 266 267 270 270 268 268 269 267 269
273 278 276 274 275 276 276 275 277 277 278 278 278 278 277 277 278 278 278 278 277 276 275 273 271 270 271 270 271 272 270 269 266 266 266 266 266 267 266 270 269 269 268 268
274 276 276 275 276 276 278 278 277 277 276 277 277 277 275 276 276 276 276 276 276 276 274 271 271 272 272 271 271 271 270 268 267 266 267 267 268 267 267 268 269 269 270 270
275 274 273 272 275 275 276 277 277 275 274 275 274 274 275 275 275 274 274 274 274 274 273 272 271 270 272 270 271 270 269 269 269 268 268 268 268 267 267 267 268 273 276 277
Wind_Speed
3 2 6 6 6 1 1 3 5 5 1 2 9 8 18 20 8 11 9 6 7 6 2 5 6 5 4 2 0 3 4 5 5 5 6 5 6 7 6 6 11 11 10 11
3 5 3 3 3 4 3 5 6 5 1 2 6 16 20 16 8 5 4 3 4 2 3 5 5 4 3 1 1 3 4 5 5 5 5 4 7 6 8 7 8 9 10 10
4 1 3 4 3 3 4 5 4 5 5 1 7 9 7 2 2 2 2 0 1 1 5 4 4 3 1 1 1 3 5 6 6 6 6 6 7 6 5 6 7 8 10 11
4 3 1 1 3 4 2 2 1 3 4 4 3 9 7 3 6 3 3 3 0 2 3 3 3 1 1 1 3 4 6 7 7 7 7 8 8 9 9 9 8 9 12 11
4 1 2 0 2 3 5 2 2 3 2 4 1 2 10 3 2 3 5 4 2 2 3 3 2 2 0 2 3 4 6 7 7 7 7 7 8 8 9 9 12 12 10 12
5 3 1 2 2 1 3 2 2 3 3 2 3 4 7 3 5 1 2 3 4 2 3 1 1 3 3 3 4 4 6 6 8 7 8 8 9 10 9 10 9 8 7 7
4 1 1 3 1 2 4 4 4 5 4 6 1 2 10 5 3 4 5 7 5 5 4 4 3 3 4 4 5 6 6 9 8 8 9 9 9 10 11 11 8 11 7 7
3 6 2 4 3 4 2 3 3 5 3 5 2 7 4 5 3 5 6 8 8 7 5 5 4 3 4 5 7 7 8 9 9 9 10 8 8 6 7 9 9 8 8 8
2 6 2 3 0 1 3 2 2 3 2 2 3 6 6 2 4 4 6 6 7 6 5 5 4 3 4 5 6 6 7 8 9 9 8 9 8 8 9 10 9 8 10 8
2 4 1 1 0 2 0 4 2 1 2 4 4 5 5 4 4 5 7 7 7 5 6 4 3 3 4 5 6 7 7 6 6 7 6 7 8 8 7 6 8 8 9 9
4 3 4 2 4 5 3 2 1 1 1 2 3 7 7 6 5 7 9 9 7 7 5 4 3 3 4 4 4 5 5 5 6 6 6 7 7 8 6 5 6 7 9 8
3 4 4 8 1 2 2 2 3 2 3 1 1 9 3 6 5 4 12 11 7 5 6 4 3 4 5 5 5 5 5 5 5 5 6 6 7 7 6 6 6 6 7 7
3 2 4 4 0 1 3 4 3 2 2 6 4 8 1 2 6 7 9 8 6 6 5 4 4 4 5 5 5 5 5 5 6 5 4 5 5 6 6 7 9 8 7 6
3 3 7 6 1 2 3 4 4 3 2 3 8 11 14 11 14 17 9 6 7 7 7 5 5 5 5 4 5 5 5 4 5 5 5 5 5 5 5 6 7 8 7 6
3 4 2 7 11 9 9 10 9 9 6 6 5 6 15 16 14 11 7 8 8 8 6 5 4 5 5 5 5 4 4 4 4 5 5 5 5 4 4 5 6 6 7 7
1 4 1 6 2 3 5 10 11 13 6 9 3 21 10 7 6 9 10 9 9 8 7 6 5 6 6 5 5 4 4 5 2 3 4 4 5 5 4 4 5 6 7 7
4 1 3 6 2 5 3 5 3 2 3 6 5 10 6 13 13 8 10 7 10 9 8 6 7 6 5 5 4 3 4 3 2 2 3 4 4 4 5 5 6 6 6 6
4 3 2 5 6 1 7 1 3 5 6 7 8 9 9 13 11 11 7 5 10 7 7 7 6 5 6 3 4 3 2 2 2 2 3 3 3 3 4 4 4 5 5 6
4 2 1 1 2 6 2 4 6 5 5 6 6 7 8 8 3 7 5 5 5 6 6 6 5 5 4 6 5 4 3 3 2 3 2 2 2 2 3 4 4 3 2 3
4 3 4 2 1 3 6 2 4 3 3 5 5 7 5 9 6 7 5 4 9 7 6 6 5 4 5 6 5 5 5 4 5 4 4 3 2 1 0 2 3 2 2 3
2 1 5 3 3 7 4 2 5 5 6 2 5 6 3 2 6 11 15 10 5 6 6 5 5 7 9 5 6 6 5 8 6 4 4 4 3 3 3 2 1 1 1 2
7 7 4 2 1 6 5 3 1 4 3 4 4 4 6 9 12 10 12 11 9 9 5 6 6 9 7 6 6 8 10 7 5 5 5 4 4 3 2 2 2 2 2 2
3 5 2 8 7 5 5 7 2 2 4 6 6 7 8 14 13 12 11 11 10 9 7 5 8 9 7 8 9 10 9 6 5 5 6 5 5 5 4 4 4 3 3 3
3 2 2 4 4 4 7 1 2 3 5 9 8 10 11 14 15 15 12 11 10 8 7 5 7 10 11 9 12 15 6 6 6 6 6 5 6 5 5 4 3 3 3 3
3 1 3 5 4 8 2 7 9 7 8 11 11 10 12 12 13 12 13 13 10 10 7 4 7 10 13 8 12 10 9 7 8 7 6 6 5 5 4 5 5 5 4 5
4 5 4 4 3 3 7 6 12 14 13 14 14 14 12 11 13 14 13 12 11 12 12 10 8 9 11 8 10 8 9 11 10 9 7 7 6 5 5 4 5 10 15 15
Wind_Direction
9 50 226 227 223 295 287 235 258 259 212 266 246 269 276 276 234 257 254 254 261 269 312 150 144 132 123 116 354 340 328 335 331 330 329 323 308 309 297 303 299 296 292 295
21 232 254 253 212 236 265 275 273 275 96 242 306 287 269 277 267 221 245 237 274 166 98 128 135 131 150 184 300 320 312 308 319 321 310 288 302 290 297 300 304 313 302 312
181 185 322 187 219 205 225 211 245 258 323 160 313 287 317 278 278 243 237 228 360 300 180 173 169 172 122 286 298 300 313 321 320 314 306 303 297 293 310 317 312 310 312 309
225 293 332 227 252 147 281 342 304 344 41 268 21 286 301 320 302 268 267 218 83 106 103 139 163 244 264 259 317 317 325 319 317 321 316 308 308 308 311 310 308 310 307 305
271 31 50 206 247 156 226 17 68 90 86 22 315 51 273 336 80 51 25 26 281 188 170 192 264 264 98 306 304 321 310 308 315 315 307 307 303 299 302 302 304 305 309 303
258 296 14 203 56 67 156 44 105 61 107 326 219 128 284 235 199 7 11 6 7 294 227 240 337 211 256 321 327 327 321 319 315 318 314 310 296 301 299 299 299 300 301 300
329 69 119 19 149 45 37 56 312 329 11 229 235 80 253 274 239 220 280 313 324 323 309 293 288 300 328 324 331 323 333 318 321 318 311 301 299 298 293 297 299 299 297 297
23 320 52 0 126 165 77 162 214 253 305 295 82 238 239 212 247 266 273 273 299 302 296 294 299 306 313 325 329 331 331 322 322 315 307 304 296 291 294 288 288 290 288 285
96 276 80 58 62 76 159 192 71 119 170 263 247 270 301 338 326 354 325 313 295 309 324 306 301 316 323 323 321 330 319 322 322 314 313 310 302 296 285 285 287 282 278 276
223 317 134 151 190 42 100 137 146 137 234 260 291 280 243 312 294 304 294 304 309 317 323 306 301 327 327 326 328 327 329 299 289 305 314 313 301 285 282 291 287 282 281 283
142 118 290 93 200 181 148 197 154 43 277 241 303 274 210 209 220 258 289 304 303 306 295 290 300 315 316 314 332 311 311 311 312 318 312 308 306 303 303 295 292 293 300 302
213 164 265 232 16 39 85 171 173 215 194 218 185 274 197 224 232 236 283 299 295 270 283 283 304 317 325 324 320 312 311 317 311 304 317 323 319 317 322 313 304 296 294 311
190 236 321 325 139 68 208 176 127 99 55 207 149 264 339 286 293 262 272 304 304 301 297 292 314 311 300 306 311 308 318 318 306 315 324 338 332 333 335 326 325 324 332 324
168 224 191 213 192 158 200 196 189 194 137 197 233 291 301 325 328 320 318 295 298 286 279 285 292 281 283 289 296 308 320 312 311 323 335 340 328 329 341 336 333 339 334 332
163 233 192 259 259 242 250 241 190 198 213 232 270 245 291 306 297 286 286 289 304 310 310 277 258 269 284 304 306 314 299 311 313 326 341 328 321 333 346 349 341 341 344 353
179 271 34 278 308 147 253 249 228 220 232 261 345 287 276 281 282 288 280 286 288 292 288 270 256 261 263 261 277 290 292 295 293 336 326 322 344 345 354 359 359 350 1 1
175 186 32 272 286 273 298 238 181 231 285 154 201 236 340 309 313 302 309 293 280 280 275 263 241 229 233 236 237 263 272 277 327 345 343 348 355 2 4 7 14 13 10 11
153 145 129 270 343 15 243 352 153 203 228 229 287 279 280 274 283 281 259 257 299 278 266 250 227 225 227 213 222 233 255 295 315 334 350 359 9 9 6 11 16 7 3 1
169 128 296 115 220 293 337 214 168 178 259 202 221 277 279 284 308 291 220 215 251 257 257 251 224 202 204 208 225 227 243 244 261 269 278 307 345 354 360 0 354 1 7 8
180 127 125 64 145 211 235 267 160 133 276 222 189 269 284 331 16 266 282 267 291 260 237 252 235 228 209 222 202 225 235 225 239 235 237 219 229 240 2 342 348 334 342 11
104 52 173 219 264 288 278 159 161 93 255 275 198 250 251 269 219 285 311 305 251 260 253 212 220 224 228 194 187 221 230 234 224 217 220 222 224 219 219 226 231 257 321 355
166 146 195 93 116 279 198 148 296 245 311 247 249 254 258 259 282 277 288 290 299 292 265 223 221 235 233 212 203 225 232 228 207 200 205 214 215 231 214 230 277 268 225 223
233 184 189 178 214 221 199 234 11 179 275 298 302 299 281 300 298 300 297 305 301 294 285 229 219 234 225 205 204 229 239 189 202 193 215 218 216 223 214 221 230 241 241 262
254 182 221 16 293 259 289 97 155 294 309 317 311 314 315 309 310 306 305 308 307 305 287 250 222 233 243 211 214 225 207 187 186 219 229 220 225 230 225 236 229 243 239 247
181 125 199 272 304 326 321 29 8 346 328 328 318 317 314 313 312 310 312 312 309 308 304 250 242 245 247 220 221 217 208 179 206 217 223 228 225 228 243 235 229 229 225 215
187 184 164 229 174 221 276 329 337 342 336 331 327 319 319 314 317 319 310 308 308 311 313 307 269 254 256 234 232 214 198 196 211 225 221 220 217 218 228 237 275 255 258 258